Time,TemperatureF,DewpointF,PressureIn,WindDirection,WindDirectionDegrees,WindSpeedMPH,WindSpeedGustMPH,Humidity,HourlyPrecipIn,Conditions,Clouds,dailyrainin,SoftwareType,DateUTC
2013-07-23 00:32:00,76.0,71.0,-100.00,West,261,3.0,4.0,86,0.00,,,-99.99,,2013-07-23 04:32:00,
2013-07-23 00:43:00,76.0,71.0,-100.00,WSW,254,3.0,6.0,86,0.00,,,-99.99,,2013-07-23 04:43:00,
2013-07-23 01:02:00,76.0,71.0,-100.00,WSW,256,4.0,6.0,87,0.00,,,-99.99,,2013-07-23 05:02:00,
2013-07-23 01:11:00,76.0,71.0,-100.00,WSW,256,4.0,6.0,87,0.00,,,-99.99,,2013-07-23 05:11:00,
2013-07-23 01:22:00,75.0,71.0,-100.00,WSW,248,3.0,6.0,88,0.00,,,-99.99,,2013-07-23 05:22:00,
2013-07-23 01:33:00,75.0,71.0,-100.00,WSW,248,3.0,6.0,88,0.00,,,-99.99,,2013-07-23 05:33:00,
2013-07-23 01:44:00,75.0,71.0,-100.00,WSW,254,2.0,4.0,88,0.00,,,-99.99,,2013-07-23 05:44:00,
2013-07-23 01:52:00,75.0,71.0,-100.00,WSW,254,2.0,4.0,88,0.00,,,-99.99,,2013-07-23 05:52:00,
2013-07-23 02:11:00,75.0,71.0,-100.00,WSW,247,3.0,7.0,88,0.00,,,-99.99,,2013-07-23 06:11:00,
2013-07-23 02:22:00,75.0,71.0,-100.00,WSW,247,3.0,7.0,88,0.00,,,-99.99,,2013-07-23 06:22:00,
2013-07-23 02:33:00,75.0,71.0,-100.00,WSW,247,3.0,7.0,88,0.00,,,-99.99,,2013-07-23 06:33:00,
2013-07-23 02:42:00,75.0,72.0,-100.00,WSW,257,3.0,4.0,89,0.00,,,-99.99,,2013-07-23 06:42:00,
2013-07-23 03:02:00,75.0,72.0,-100.00,WSW,250,3.0,5.0,90,0.00,,,-99.99,,2013-07-23 07:02:00,
2013-07-23 03:12:00,75.0,72.0,-100.00,WSW,250,3.0,5.0,90,0.00,,,-99.99,,2013-07-23 07:12:00,
2013-07-23 03:22:00,75.0,72.0,-100.00,WSW,244,3.0,6.0,90,0.00,,,-99.99,,2013-07-23 07:22:00,
2013-07-23 03:33:00,75.0,72.0,-100.00,WSW,244,3.0,6.0,90,0.00,,,-99.99,,2013-07-23 07:33:00,
2013-07-23 03:42:00,75.0,72.0,-100.00,West,260,3.0,5.0,89,0.00,,,-99.99,,2013-07-23 07:42:00,
2013-07-23 03:52:00,75.0,72.0,-100.00,West,260,3.0,5.0,89,0.00,,,-99.99,,2013-07-23 07:52:00,
2013-07-23 04:11:00,75.0,71.0,-100.00,WSW,241,1.0,2.0,89,0.00,,,-99.99,,2013-07-23 08:11:00,
2013-07-23 04:22:00,75.0,71.0,-100.00,WSW,241,1.0,2.0,89,0.00,,,-99.99,,2013-07-23 08:22:00,
2013-07-23 04:33:00,75.0,71.0,-100.00,WSW,241,1.0,2.0,89,0.00,,,-99.99,,2013-07-23 08:33:00,
2013-07-23 04:43:00,74.0,71.0,-100.00,WSW,241,3.0,5.0,91,0.00,,,-99.99,,2013-07-23 08:43:00,
2013-07-23 05:01:00,74.0,71.0,-100.00,WSW,258,5.0,6.0,91,0.00,,,-99.99,,2013-07-23 09:01:00,
2013-07-23 05:11:00,74.0,71.0,-100.00,WSW,258,5.0,6.0,91,0.00,,,-99.99,,2013-07-23 09:11:00,
2013-07-23 05:22:00,74.0,71.0,-100.00,WSW,258,5.0,6.0,91,0.00,,,-99.99,,2013-07-23 09:22:00,
2013-07-23 05:33:00,74.0,71.0,-100.00,West,268,6.0,8.0,91,0.00,,,-99.99,,2013-07-23 09:33:00,
2013-07-23 05:42:00,74.0,71.0,-100.00,West,268,6.0,8.0,91,0.00,,,-99.99,,2013-07-23 09:42:00,
2013-07-23 06:11:00,74.0,71.0,-100.00,West,264,7.0,11.0,90,0.00,,,-99.99,,2013-07-23 10:11:00,
2013-07-23 06:32:00,74.0,71.0,-100.00,West,260,6.0,8.0,91,0.00,,,-99.99,,2013-07-23 10:32:00,
2013-07-23 07:02:00,74.0,71.0,-100.00,West,263,5.0,9.0,91,0.00,,,-99.99,,2013-07-23 11:02:00,
2013-07-23 07:12:00,74.0,71.0,-100.00,West,263,5.0,9.0,91,0.00,,,-99.99,,2013-07-23 11:12:00,
2013-07-23 07:22:00,74.0,71.0,-100.00,West,263,5.0,9.0,91,0.00,,,-99.99,,2013-07-23 11:22:00,
2013-07-23 07:32:00,74.0,71.0,-100.00,West,263,7.0,8.0,90,0.00,,,-99.99,,2013-07-23 11:32:00,
2013-07-23 07:43:00,75.0,72.0,-100.00,West,265,6.0,8.0,89,0.00,,,-99.99,,2013-07-23 11:43:00,
2013-07-23 08:02:00,75.0,71.0,-100.00,West,261,7.0,10.0,87,0.00,,,-99.99,,2013-07-23 12:02:00,
2013-07-23 08:11:00,75.0,71.0,-100.00,West,261,7.0,10.0,87,0.00,,,-99.99,,2013-07-23 12:11:00,
2013-07-23 08:22:00,75.0,71.0,-100.00,West,261,7.0,10.0,87,0.00,,,-99.99,,2013-07-23 12:22:00,
2013-07-23 08:43:00,76.0,71.0,-100.00,West,281,5.0,9.0,85,0.00,,,-99.99,,2013-07-23 12:43:00,
2013-07-23 09:02:00,76.0,71.0,-100.00,West,281,5.0,9.0,85,0.00,,,-99.99,,2013-07-23 13:02:00,
2013-07-23 09:11:00,77.0,71.0,-100.00,West,271,4.0,8.0,82,0.00,,,-99.99,,2013-07-23 13:11:00,
2013-07-23 09:32:00,78.0,71.0,-100.00,West,274,4.0,7.0,79,0.00,,,-99.99,,2013-07-23 13:32:00,
2013-07-23 09:43:00,80.0,70.0,-100.00,NW,309,5.0,8.0,71,0.00,,,-99.99,,2013-07-23 13:43:00,
2013-07-23 10:02:00,81.0,70.0,-100.00,NW,322,4.0,7.0,69,0.00,,,-99.99,,2013-07-23 14:02:00,
2013-07-23 10:22:00,81.0,70.0,-100.00,NW,322,4.0,7.0,69,0.00,,,-99.99,,2013-07-23 14:22:00,
2013-07-23 10:33:00,81.0,69.0,-100.00,WNW,294,7.0,14.0,66,0.00,,,-99.99,,2013-07-23 14:33:00,
2013-07-23 10:40:00,84.0,68.0,-100.00,North,352,4.0,8.0,59,0.00,,,-99.99,,2013-07-23 14:40:00,
2013-07-23 10:44:00,83.0,69.0,-100.00,West,280,5.0,8.0,64,0.00,,,-99.99,,2013-07-23 14:44:00,
2013-07-23 10:54:00,83.0,69.0,-100.00,West,280,5.0,8.0,64,0.00,,,-99.99,,2013-07-23 14:54:00,
2013-07-23 11:03:00,84.0,68.0,-100.00,North,352,4.0,8.0,59,0.00,,,-99.99,,2013-07-23 15:03:00,
2013-07-23 11:11:00,84.0,68.0,-100.00,North,352,4.0,8.0,59,0.00,,,-99.99,,2013-07-23 15:11:00,
2013-07-23 11:24:00,84.0,68.0,-100.00,North,352,4.0,8.0,59,0.00,,,-99.99,,2013-07-23 15:24:00,
2013-07-23 11:32:00,84.0,68.0,-100.00,North,352,4.0,8.0,59,0.00,,,-99.99,,2013-07-23 15:32:00,
2013-07-23 12:12:00,84.0,69.0,-100.00,WNW,287,4.0,7.0,61,0.00,,,-99.99,,2013-07-23 16:12:00,
2013-07-23 12:22:00,84.0,69.0,-100.00,WNW,287,4.0,7.0,61,0.00,,,-99.99,,2013-07-23 16:22:00,
2013-07-23 12:33:00,84.0,69.0,-100.00,WNW,287,4.0,7.0,61,0.00,,,-99.99,,2013-07-23 16:33:00,
2013-07-23 12:43:00,84.0,68.0,-100.00,NW,308,6.0,10.0,58,0.00,,,-99.99,,2013-07-23 16:43:00,
2013-07-23 12:52:00,86.0,68.0,-100.00,WNW,282,4.0,8.0,55,0.00,,,-99.99,,2013-07-23 16:52:00,
2013-07-23 13:11:00,86.0,69.0,-100.00,WNW,296,5.0,12.0,57,0.00,,,-99.99,,2013-07-23 17:11:00,
2013-07-23 13:32:00,84.0,70.0,-100.00,NW,322,7.0,11.0,63,0.00,,,-99.99,,2013-07-23 17:32:00,
2013-07-23 13:42:00,83.0,70.0,-100.00,NW,311,6.0,11.0,63,0.00,,,-99.99,,2013-07-23 17:42:00,
2013-07-23 14:04:00,81.0,72.0,-100.00,West,267,3.0,4.0,76,0.00,,,-99.99,,2013-07-23 18:04:00,
2013-07-23 14:13:00,81.0,72.0,-100.00,West,267,3.0,4.0,76,0.00,,,-99.99,,2013-07-23 18:13:00,
2013-07-23 14:25:00,83.0,72.0,-100.00,West,274,5.0,8.0,70,0.00,,,-99.99,,2013-07-23 18:25:00,
2013-07-23 14:35:00,83.0,72.0,-100.00,West,274,5.0,8.0,70,0.00,,,-99.99,,2013-07-23 18:35:00,
2013-07-23 14:48:00,85.0,69.0,-100.00,NW,305,6.0,8.0,59,0.00,,,-99.99,,2013-07-23 18:48:00,
2013-07-23 15:03:00,87.0,71.0,-100.00,WNW,284,4.0,7.0,59,0.00,,,-99.99,,2013-07-23 19:03:00,
2013-07-23 15:15:00,87.0,71.0,-100.00,WNW,284,4.0,7.0,59,0.00,,,-99.99,,2013-07-23 19:15:00,
2013-07-23 15:27:00,87.0,71.0,-100.00,WNW,284,4.0,7.0,59,0.00,,,-99.99,,2013-07-23 19:27:00,
2013-07-23 15:46:00,87.0,70.0,-100.00,NNW,329,7.0,10.0,57,0.00,,,-99.99,,2013-07-23 19:46:00,
2013-07-23 15:55:00,88.0,71.0,-100.00,NW,325,4.0,8.0,58,0.00,,,-99.99,,2013-07-23 19:55:00,
2013-07-23 16:07:00,88.0,71.0,-100.00,NW,325,4.0,8.0,58,0.00,,,-99.99,,2013-07-23 20:07:00,
2013-07-23 16:14:00,88.0,71.0,-100.00,NW,325,4.0,8.0,58,0.00,,,-99.99,,2013-07-23 20:14:00,
2013-07-23 16:24:00,88.0,69.0,-100.00,NW,323,9.0,14.0,54,0.00,,,-99.99,,2013-07-23 20:24:00,
2013-07-23 16:35:00,88.0,69.0,-100.00,NW,323,9.0,14.0,54,0.00,,,-99.99,,2013-07-23 20:35:00,
2013-07-23 17:05:00,89.0,70.0,-100.00,North,350,3.0,5.0,52,0.00,,,-99.99,,2013-07-23 21:05:00,
2013-07-23 17:15:00,89.0,68.0,-100.00,NW,325,6.0,9.0,51,0.00,,,-99.99,,2013-07-23 21:15:00,
2013-07-23 17:24:00,89.0,69.0,-100.00,NW,304,5.0,8.0,52,0.00,,,-99.99,,2013-07-23 21:24:00,
2013-07-23 17:47:00,89.0,69.0,-100.00,WNW,291,4.0,7.0,51,0.00,,,-99.99,,2013-07-23 21:47:00,
2013-07-23 17:57:00,89.0,69.0,-100.00,WNW,291,4.0,7.0,51,0.00,,,-99.99,,2013-07-23 21:57:00,
2013-07-23 18:06:00,89.0,69.0,-100.00,NW,311,5.0,8.0,53,0.00,,,-99.99,,2013-07-23 22:06:00,
2013-07-23 18:13:00,89.0,69.0,-100.00,NW,311,5.0,8.0,53,0.00,,,-99.99,,2013-07-23 22:13:00,
2013-07-23 18:24:00,89.0,69.0,-100.00,NW,311,5.0,8.0,53,0.00,,,-99.99,,2013-07-23 22:24:00,
2013-07-23 19:06:00,87.0,69.0,-100.00,West,267,4.0,6.0,54,0.00,,,-99.99,,2013-07-23 23:06:00,
2013-07-23 19:14:00,88.0,71.0,-100.00,West,275,3.0,4.0,56,0.00,,,-99.99,,2013-07-23 23:14:00,
2013-07-23 19:25:00,88.0,71.0,-100.00,West,275,3.0,4.0,56,0.00,,,-99.99,,2013-07-23 23:25:00,
2013-07-23 19:36:00,88.0,71.0,-100.00,West,275,3.0,4.0,56,0.00,,,-99.99,,2013-07-23 23:36:00,
2013-07-23 19:45:00,86.0,72.0,-100.00,West,278,4.0,5.0,61,0.00,,,-99.99,,2013-07-23 23:45:00,
2013-07-23 20:11:00,86.0,72.0,-100.00,West,278,4.0,5.0,61,0.00,,,-99.99,,2013-07-24 00:11:00,
2013-07-23 20:26:00,83.0,72.0,-100.00,WSW,246,2.0,3.0,70,0.00,,,-99.99,,2013-07-24 00:26:00,
2013-07-23 20:34:00,83.0,72.0,-100.00,WSW,246,2.0,3.0,70,0.00,,,-99.99,,2013-07-24 00:34:00,
2013-07-23 20:50:00,81.0,73.0,-100.00,West,260,2.0,4.0,78,0.00,,,-99.99,,2013-07-24 00:50:00,
2013-07-23 20:58:00,81.0,73.0,-100.00,West,260,2.0,4.0,78,0.00,,,-99.99,,2013-07-24 00:58:00,
2013-07-23 21:04:00,80.0,73.0,-100.00,WSW,253,3.0,5.0,79,0.00,,,-99.99,,2013-07-24 01:04:00,
2013-07-23 21:16:00,80.0,73.0,-100.00,WSW,253,3.0,5.0,79,0.00,,,-99.99,,2013-07-24 01:16:00,
2013-07-23 21:24:00,80.0,73.0,-100.00,WSW,253,3.0,5.0,79,0.00,,,-99.99,,2013-07-24 01:24:00,
2013-07-23 21:34:00,80.0,73.0,-100.00,West,265,3.0,3.0,80,0.00,,,-99.99,,2013-07-24 01:34:00,
2013-07-23 21:45:00,79.0,72.0,-100.00,WSW,250,2.0,3.0,80,0.00,,,-99.99,,2013-07-24 01:45:00,
2013-07-23 22:05:00,79.0,72.0,-100.00,WSW,254,2.0,4.0,81,0.00,,,-99.99,,2013-07-24 02:05:00,
2013-07-23 22:18:00,79.0,72.0,-100.00,WSW,254,2.0,4.0,81,0.00,,,-99.99,,2013-07-24 02:18:00,
2013-07-23 22:27:00,79.0,72.0,-100.00,WSW,254,2.0,4.0,81,0.00,,,-99.99,,2013-07-24 02:27:00,
2013-07-23 22:47:00,79.0,72.0,-100.00,West,264,3.0,4.0,79,0.00,,,-99.99,,2013-07-24 02:47:00,
2013-07-23 23:06:00,79.0,72.0,-100.00,West,264,3.0,4.0,79,0.00,,,-99.99,,2013-07-24 03:06:00,
2013-07-23 23:13:00,78.0,72.0,-100.00,WSW,253,3.0,5.0,82,0.00,,,-99.99,,2013-07-24 03:13:00,
2013-07-23 23:24:00,78.0,72.0,-100.00,WSW,253,3.0,5.0,82,0.00,,,-99.99,,2013-07-24 03:24:00,
2013-07-23 23:46:00,78.0,72.0,-100.00,WSW,258,4.0,6.0,81,0.00,,,-99.99,,2013-07-24 03:46:00,